This demonstration page uses our WeatherBlox Daily Observations layout. Learn more.

Left ArrowRight Arrow

34.16533, -84.80231

Hourly Observations for May 26, 2022

Temp ( °F °C ) Dew Point ( °F °C ) Humidity (%) Winds ( mph kmh ) Pressure ( in mb ) Visibility ( mi km ) Precip ( " mm )
12:15 am 00:15 Cloudy with Light Rain 68 20 66 19 94 94 ESE 10 17 30.08 1019 7 11 0.00 0.00
12:35 am 00:35 Cloudy 68 20 66 19 94 94 ESE 7 11 30.07 1018 9 14 0.00 0.00
12:55 am 00:55 Cloudy 68 20 66 19 94 94 ESE 6 9 30.07 1018 9 14 0.00 0.00
1:15 am 01:15 Cloudy 68 20 66 19 94 94 VRB 6 9 30.07 1018 10 16 0.00 0.00
1:35 am 01:35 Cloudy 68 20 66 19 94 94 ESE 8 13 30.05 1018 10 16 0.00 0.00
1:55 am 01:55 Cloudy 68 20 66 19 94 94 VRB 5 7 30.05 1018 10 16 0.00 0.00
2:15 am 02:15 Cloudy 68 20 66 19 94 94 ESE 6 9 30.05 1018 10 16 0.00 0.00
2:35 am 02:35 Cloudy 68 20 66 19 94 94 SSE 6 9 30.06 1018 10 16 0.00 0.00
2:55 am 02:55 Cloudy 68 20 66 19 94 94 Calm 30.05 1018 10 16 0.00 0.00
3:15 am 03:15 Cloudy with Light Rain 68 20 68 20 100 100 E 5 7 30.04 1017 9 14 0.00 0.00
3:35 am 03:35 Cloudy 68 20 68 20 100 100 Calm 30.05 1018 10 16 0.00 0.00
3:55 am 03:55 Cloudy 68 20 68 20 100 100 ESE 3 6 30.04 1017 10 16 0.00 0.00
4:15 am 04:15 Cloudy 68 20 68 20 100 100 Calm 30.05 1018 9 14 0.00 0.00
4:35 am 04:35 Cloudy 68 20 68 20 100 100 Calm 30.05 1018 10 16 0.00 0.00
4:55 am 04:55 Cloudy 68 20 68 20 100 100 Calm 30.04 1017 10 16 0.00 0.00
5:15 am 05:15 Cloudy 70 21 68 20 94 94 Calm 30.05 1018 10 16 0.00 0.00
5:35 am 05:35 Cloudy 70 21 68 20 94 94 Calm 30.04 1017 10 16 0.00 0.00
5:55 am 05:55 Cloudy 70 21 66 19 88 88 S 6 9 30.05 1018 10 16 0.00 0.00
6:15 am 06:15 Mostly Cloudy with Rain 70 21 66 19 88 88 S 5 7 30.05 1018 4 6 0.00 0.00
6:35 am 06:35 Mostly Cloudy with Light Rain 68 20 66 19 94 94 VRB 3 6 30.03 1017 5 8 0.00 0.00
6:55 am 06:55 Cloudy 68 20 66 19 94 94 Calm 30.04 1017 10 16 0.03 0.76
7:15 am 07:15 Partly Cloudy 68 20 66 19 94 94 SE 6 9 30.04 1017 10 16 0.00 0.00
7:35 am 07:35 Mostly Cloudy 68 20 66 19 94 94 SE 5 7 30.04 1017 10 16 0.00 0.00
7:55 am 07:55 Mostly Cloudy 68 20 66 19 94 94 VRB 6 9 30.04 1017 10 16 0.00 0.00
8:15 am 08:15 Mostly Cloudy 70 21 66 19 88 88 SSE 6 9 30.04 1017 10 16 0.00 0.00
8:35 am 08:35 Mostly Cloudy 70 21 68 20 94 94 SE 7 11 30.03 1017 10 16 0.00 0.00
8:55 am 08:55 Mostly Cloudy 72 22 66 19 83 83 SSE 8 13 30.04 1017 10 16 0.00 0.00
9:15 am 09:15 Cloudy 72 22 66 19 83 83 SSE 9 15 30.04 1017 10 16 0.00 0.00
9:35 am 09:35 Cloudy 72 22 66 19 83 83 SSE 15 24 30.04 1017 10 16 0.00 0.00
9:55 am 09:55 Partly Cloudy 72 22 66 19 83 83 SSE 8 13 30.04 1017 10 16 0.00 0.00
10:15 am 10:15 Mostly Cloudy 72 22 66 19 83 83 VRB 5 7 30.03 1017 10 16 0.00 0.00
10:35 am 10:35 Cloudy 73 23 66 19 78 78 SSE 13 20 30.02 1017 10 16 0.00 0.00
10:55 am 10:55 Cloudy 73 23 66 19 78 78 SSE 7 11 30.03 1017 10 16 0.00 0.00
11:15 am 11:15 Cloudy 73 23 66 19 78 78 S 8 13 30.03 1017 10 16 0.00 0.00
11:35 am 11:35 Mostly Cloudy 75 24 66 19 74 74 Calm 30.02 1017 10 16 0.00 0.00
11:55 am 11:55 Mostly Cloudy 75 24 66 19 74 74 VRB 6 9 30.02 1017 10 16 0.00 0.00
12:15 pm 12:15 Mostly Cloudy 77 25 66 19 69 69 SSE 13 20 30.00 1016 10 16 0.00 0.00
12:35 pm 12:35 Mostly Cloudy 79 26 66 19 65 65 S 15 24 30.00 1016 10 16 0.00 0.00
12:55 pm 12:55 Cloudy 79 26 66 19 65 65 S 12 19 30.00 1016 10 16 0.00 0.00
1:15 pm 13:15 Cloudy 79 26 68 20 70 70 VRB 6 9 30.00 1016 10 16 0.00 0.00
1:35 pm 13:35 Cloudy with Light Rain 73 23 68 20 83 83 SSW 7 11 30.00 1016 8 13 0.00 0.00
1:55 pm 13:55 Cloudy with Heavy Rain 72 22 68 20 88 88 SSW 9 15 30.01 1016 1 1 0.27 6.86
2:15 pm 14:15 Mostly Cloudy with Light Rain 72 22 70 21 94 94 SW 5 7 30.00 1016 10 16 0.00 0.00
2:35 pm 14:35 Partly Cloudy with Light Rain 72 22 70 21 94 94 SSW 7 11 30.00 1016 3 5 0.00 0.00
2:55 pm 14:55 Partly Cloudy with Light Rain 72 22 68 20 88 88 S 9 15 29.99 1015 3 5 0.07 1.78
3:15 pm 15:15 Partly Cloudy with Light Rain 72 22 68 20 88 88 S 12 19 29.99 1015 8 13 0.00 0.00
3:35 pm 15:35 Partly Cloudy with Light Rain 70 21 68 20 94 94 S 10 17 29.98 1015 8 13 0.00 0.00
3:55 pm 15:55 Sunny with Light Rain 70 21 68 20 94 94 SSW 7 11 29.98 1015 10 16 0.05 1.27
4:15 pm 16:15 Partly Cloudy with Light Rain 72 22 68 20 88 88 VRB 5 7 29.94 1014 10 16 0.00 0.00
4:35 pm 16:35 Sunny with Light Rain 72 22 68 20 88 88 VRB 5 7 29.94 1014 10 16 0.00 0.00
4:55 pm 16:55 Mostly Sunny 73 23 70 21 89 89 VRB 7 11 29.94 1014 10 16 0.00 0.00
5:15 pm 17:15 Mostly Cloudy 72 22 68 20 88 88 VRB 3 6 29.94 1014 10 16 0.00 0.00
5:35 pm 17:35 Mostly Cloudy 72 22 68 20 88 88 S 7 11 29.94 1014 10 16 0.00 0.00
5:55 pm 17:55 Mostly Cloudy 72 22 68 20 88 88 SSW 7 11 29.93 1013 10 16 0.00 0.00
6:15 pm 18:15 Partly Cloudy 72 22 66 19 83 83 S 6 9 29.94 1014 10 16 0.00 0.00
6:35 pm 18:35 Partly Cloudy 72 22 66 19 83 83 S 7 11 29.94 1014 10 16 0.00 0.00
6:55 pm 18:55 Partly Cloudy 72 22 66 19 83 83 S 6 9 29.94 1014 10 16 0.00 0.00
7:15 pm 19:15 Mostly Cloudy 72 22 66 19 83 83 SSE 7 11 29.94 1014 10 16 0.00 0.00
7:35 pm 19:35 Mostly Cloudy 72 22 66 19 83 83 SSE 5 7 29.94 1014 10 16 0.00 0.00
7:55 pm 19:55 Cloudy 72 22 66 19 83 83 SE 5 7 29.93 1013 10 16 0.00 0.00
8:15 pm 20:15 Cloudy 70 21 64 18 83 83 SSE 6 9 29.93 1014 10 16 0.00 0.00
8:35 pm 20:35 Cloudy 70 21 66 19 88 88 VRB 5 7 29.92 1013 10 16 0.00 0.00
8:55 pm 20:55 Cloudy 70 21 66 19 88 88 VRB 6 9 29.93 1014 10 16 0.00 0.00
9:15 pm 21:15 Cloudy 70 21 66 19 88 88 Calm 29.93 1014 10 16 0.00 0.00
9:35 pm 21:35 Mostly Cloudy with Light Rain 70 21 66 19 88 88 Calm 29.93 1014 4 6 0.00 0.00
9:55 pm 21:55 Cloudy with Light Rain 68 20 66 19 94 94 Calm 29.93 1014 9 14 0.00 0.00
10:15 pm 22:15 Cloudy with Light Rain 68 20 66 19 94 94 W 5 7 29.93 1014 4 6 0.00 0.00
10:35 pm 22:35 Cloudy with Light Rain 68 20 66 19 94 94 SSE 8 13 29.93 1014 2 2 0.00 0.00
10:55 pm 22:55 Cloudy 68 20 66 19 94 94 Calm 29.94 1014 10 16 0.21 5.33
11:15 pm 23:15 Cloudy 68 20 66 19 94 94 Calm 29.94 1014 10 16 0.00 0.00
11:35 pm 23:35 Cloudy 68 20 66 19 94 94 Calm 29.93 1014 10 16 0.00 0.00
11:55 pm 23:55 Cloudy 68 20 66 19 94 94 Calm 29.93 1014 10 16 0.00 0.00

Powered by AerisWeather